Total_Precipitation_Accumulation
0.00 0.01 0.01 0.01 0.01 0.01 0.02 0.03 0.05 0.12 0.44 0.62 0.60 0.83 0.79 0.69 0.78 0.31 0.09 0.04 0.01 0.00
0.01 0.02 0.04 0.04 0.05 0.03 0.03 0.06 0.04 0.10 0.69 1.07 1.12 0.75 0.75 0.67 0.45 0.47 0.19 0.07 0.04 0.01
0.03 0.03 0.06 0.07 0.07 0.07 0.09 0.36 0.19 0.09 0.63 1.27 1.44 1.52 1.20 0.98 0.60 0.46 0.30 0.09 0.05 0.02
0.04 0.07 0.11 0.10 0.19 0.08 0.05 0.13 0.55 0.31 0.21 0.56 0.85 1.37 1.36 1.02 0.77 0.63 0.43 0.20 0.10 0.04
0.09 0.11 0.14 0.19 0.14 0.14 0.11 0.12 0.17 0.24 0.12 0.07 0.22 0.43 1.22 1.20 0.85 0.74 0.58 0.33 0.15 0.06
0.20 0.19 0.15 0.25 0.18 0.17 0.21 0.13 0.12 0.16 0.16 0.06 0.05 0.10 0.32 1.01 1.27 0.78 0.60 0.42 0.18 0.05
0.09 0.22 0.38 0.45 0.44 0.63 0.32 0.26 0.21 0.14 0.16 0.19 0.18 0.17 0.21 0.34 0.81 1.13 0.66 0.59 0.41 0.17
0.00 0.00 0.02 0.10 0.36 0.57 0.61 0.74 0.76 0.63 0.36 0.26 0.31 0.36 0.23 0.24 0.30 0.65 0.91 0.63 0.47 0.34
0.00 0.00 0.00 0.00 0.02 0.06 0.14 0.27 0.43 0.72 1.19 0.82 0.59 0.46 0.41 0.22 0.18 0.25 0.41 0.91 0.77 0.33
0.00 0.00 0.00 0.00 0.00 0.00 0.00 0.02 0.13 0.25 0.44 0.80 0.83 1.00 0.74 0.83 0.43 0.31 0.26 0.37 0.99 0.67
0.00 0.00 0.00 0.00 0.00 0.00 0.01 0.01 0.01 0.06 0.16 0.18 0.33 0.74 0.73 0.91 1.01 0.77 0.52 0.47 0.46 0.34
0.00 0.00 0.00 0.00 0.03 0.03 0.03 0.04 0.01 0.01 0.02 0.03 0.06 0.16 0.27 0.32 0.61 0.65 0.99 0.56 0.36 0.35
0.00 0.00 0.00 0.00 0.02 0.02 0.05 0.03 0.01 0.02 0.03 0.04 0.01 0.04 0.07 0.07 0.13 0.24 0.38 0.96 0.50 0.42
0.00 0.00 0.00 0.00 0.00 0.00 0.00 0.00 0.02 0.04 0.04 0.04 0.06 0.06 0.11 0.12 0.03 0.08 0.15 0.16 0.39 0.46